GW7195 Weather Reports


time (UTC)temp
F
wind
direction
speed
knots
gust
knots
rain 1hr
in
rain 24hr
in
rain mn
in
humidity
%
barometer
mb
20260505062401 36 190 0.0 0.0 0.00 0.00 0.00 99 817.9
20260505061858 36 201 0.9 0.9 0.00 0.00 0.00 99 817.9
20260505061356 36 176 4.3 5.2 0.00 0.00 0.00 99 817.9
20260505060853 36 163 2.6 2.6 0.00 0.00 0.00 99 817.9
20260505060350 36 192 0.0 0.0 0.00 0.00 0.00 99 817.9
20260505055846 36 192 0.0 0.0 0.00 0.02 0.02 99 817.9
20260505055342 36 192 2.6 2.6 0.00 0.02 0.02 99 818.2
20260505054840 36 193 0.0 0.9 0.00 0.02 0.02 99 818.2
20260505054337 36 166 2.6 4.3 0.00 0.02 0.02 99 818.2
20260505053835 36 187 0.9 1.7 0.00 0.02 0.02 99 818.2
20260505053332 36 186 1.7 1.7 0.00 0.02 0.02 99 818.5
20260505052828 36 157 2.6 2.6 0.00 0.02 0.02 99 817.9
20260505052325 36 189 0.9 0.9 0.00 0.02 0.02 99 818.2
20260505051822 36 168 1.7 1.7 0.00 0.02 0.02 99 818.5
20260505051320 35 186 0.0 0.0 0.00 0.02 0.02 99 818.2
20260505050818 36 189 0.0 0.0 0.00 0.02 0.02 99 818.2
20260505050316 36 183 0.0 0.0 0.00 0.02 0.02 99 818.5
20260505041746 36 201 0.0 0.0 0.00 0.02 0.02 99 819.0
20260505041243 36 201 0.0 0.0 0.00 0.02 0.02 99 818.5
20260505040740 36 195 0.0 0.0 0.00 0.02 0.02 99 819.0
20260505040238 36 191 0.9 0.9 0.00 0.02 0.02 99 819.0
20260505035735 37 189 0.9 0.9 0.01 0.02 0.02 99 819.0
20260505035230 37 196 0.0 0.0 0.01 0.02 0.02 99 818.5
20260505034727 37 185 0.9 1.7 0.01 0.02 0.02 99 819.0
20260505034224 38 181 1.7 1.7 0.01 0.02 0.02 99 818.5
20260505033721 38 192 0.0 0.0 0.01 0.02 0.02 99 818.5
20260505033219 38 201 0.9 0.9 0.00 0.01 0.01 99 818.2
20260505032717 38 192 0.9 0.9 0.00 0.01 0.01 99 818.5
20260505032212 38 208 0.0 0.0 0.00 0.01 0.01 98 818.5
20260505031710 38 208 0.0 0.0 0.00 0.01 0.01 98 818.2
20260505031206 37 208 0.0 0.0 0.00 0.01 0.01 97 818.2
20260505030703 37 220 1.7 1.7 0.00 0.01 0.01 97 817.9
20260505030159 38 216 0.9 1.7 0.00 0.01 0.01 97 817.9
20260505025655 39 214 0.9 0.9 0.01 0.01 0.01 96 818.2
20260505025153 39 214 0.9 1.7 0.01 0.01 0.01 96 818.2
20260505024651 39 197 0.0 0.0 0.01 0.01 0.01 95 818.2
20260505024148 39 193 0.0 0.0 0.00 0.00 0.00 95 818.2
20260505023645 39 181 0.9 0.9 0.00 0.00 0.00 95 818.2
20260505023143 39 174 1.7 1.7 0.00 0.00 0.00 94 817.9
20260505022640 39 167 2.6 2.6 0.00 0.00 0.00 93 817.9
20260505022137 39 172 0.9 0.9 0.00 0.00 0.00 93 817.9
20260505021633 39 110 0.9 2.6 0.00 0.00 0.00 94 817.9
20260505021130 39 76 1.7 1.7 0.00 0.00 0.00 94 817.9
20260505020626 39 70 0.0 0.9 0.00 0.00 0.00 95 817.9
20260505020122 39 56 1.7 2.6 0.00 0.00 0.00 95 817.9
20260505015619 39 191 0.9 1.7 0.00 0.00 0.00 96 817.9
20260505015116 39 122 0.9 0.9 0.00 0.00 0.00 96 817.5
20260505014612 39 177 0.0 0.9 0.00 0.00 0.00 96 817.9
20260505014110 40 176 2.6 2.6 0.00 0.00 0.00 96 817.5
20260505013607 40 180 0.9 1.7 0.00 0.00 0.00 97 817.5
20260505013104 40 190 0.0 0.9 0.00 0.00 0.00 98 817.5
20260505012602 40 194 0.0 0.0 0.00 0.00 0.00 98 817.5
20260505012059 41 190 0.0 0.0 0.00 0.00 0.00 98 817.5
20260505011554 40 190 0.0 0.0 0.00 0.00 0.00 98 817.9
20260505011052 40 184 0.9 0.9 0.00 0.00 0.00 97 817.5
20260505010547 41 189 0.0 0.0 0.00 0.00 0.00 98 817.5
20260505010044 40 179 1.7 2.6 0.00 0.00 0.00 97 817.9
20260505005540 41 187 0.9 0.9 0.00 0.00 0.00 97 817.5
20260505005038 41 190 0.9 0.9 0.00 0.00 0.00 97 817.5
20260505004535 41 203 0.0 0.0 0.00 0.00 0.00 96 817.5
20260505004031 41 205 0.0 0.0 0.00 0.00 0.00 95 817.5
20260505003529 41 204 0.0 0.9 0.00 0.00 0.00 96 817.5
20260505003026 40 208 0.9 0.9 0.00 0.00 0.00 95 817.5
20260505002526 40 195 0.9 0.9 0.00 0.00 0.00 95 817.9
20260505002026 40 195 0.0 0.9 0.00 0.00 0.00 95 817.9
20260505001523 40 181 2.6 5.2 0.00 0.00 0.00 92 817.9
20260505001020 41 174 6.1 8.7 0.00 0.00 0.00 89 817.9
20260505000517 41 153 5.2 6.1 0.00 0.00 0.00 85 818.2
20260505000015 43 101 6.1 7.0 0.00 0.00 0.00 81 818.2
20260504235511 44 179 5.2 7.0 0.00 0.00 0.00 77 817.9
20260504235007 45 197 0.9 0.9 0.00 0.00 0.00 72 817.9
20260504234505 45 280 2.6 2.6 0.00 0.00 0.00 68 817.9
20260504234002 45 128 6.1 7.8 0.00 0.00 0.00 68 817.5
20260504233457 45 183 4.3 6.1 0.00 0.00 0.00 69 817.1
20260504232954 44 222 3.5 5.2 0.00 0.00 0.00 68 817.1
20260504232451 44 144 5.2 7.8 0.00 0.00 0.00 71 816.7
20260504231949 44 204 1.7 1.7 0.00 0.00 0.00 72 816.7
20260504231445 44 204 1.7 2.6 0.00 0.00 0.00 73 816.7
20260504230941 44 212 3.5 5.2 0.00 0.00 0.00 71 816.7
20260504230438 45 248 2.6 5.2 0.00 0.00 0.00 71 816.7
20260504225937 45 234 3.5 5.2 0.00 0.00 0.00 67 816.7
20260504225433 45 259 5.2 7.0 0.00 0.00 0.00 67 816.4
20260504224930 46 245 3.5 7.8 0.00 0.00 0.00 64 816.4
20260504224427 47 258 7.0 12.2 0.00 0.00 0.00 61 816.4
20260504223924 49 215 5.2 7.8 0.00 0.00 0.00 57 816.0
20260504223420 53 241 5.2 7.0 0.00 0.00 0.00 49 816.4
20260504222916 53 211 1.7 1.7 0.00 0.00 0.00 48 816.4
20260504222413 53 190 2.6 4.3 0.00 0.00 0.00 49 816.4
20260504221911 53 255 4.3 5.2 0.00 0.00 0.00 48 816.4
20260504221408 53 202 2.6 2.6 0.00 0.00 0.00 49 816.4
20260504220905 53 256 4.3 6.1 0.00 0.00 0.00 49 816.4
20260504220401 53 198 0.9 1.7 0.00 0.00 0.00 49 816.0
20260504215859 53 249 3.5 4.3 0.00 0.00 0.00 48 816.4
20260504215355 53 258 4.3 7.0 0.00 0.00 0.00 47 816.0
20260504214851 54 288 7.0 7.8 0.00 0.00 0.00 46 816.0
20260504214348 55 202 0.9 0.9 0.00 0.00 0.00 43 816.4
20260504213845 55 204 0.0 0.9 0.00 0.00 0.00 43 816.4
20260504213341 55 180 1.7 1.7 0.00 0.00 0.00 43 816.4
20260504212838 55 211 0.9 0.9 0.00 0.00 0.00 43 816.4
20260504212334 55 314 1.7 2.6 0.00 0.00 0.00 42 816.4
20260504211832 55 332 2.6 2.6 0.00 0.00 0.00 44 816.4
20260504211328 57 328 5.2 7.0 0.00 0.00 0.00 43 816.4
20260504210826 57 338 2.6 4.3 0.00 0.00 0.00 45 816.4
20260504210322 55 217 4.3 5.2 0.00 0.00 0.00 47 816.4
20260504205820 55 282 4.3 5.2 0.00 0.00 0.00 47 816.4
20260504205317 55 197 5.2 6.1 0.00 0.00 0.00 47 816.7
20260504204815 53 275 6.1 11.3 0.00 0.00 0.00 50 816.7
20260504204313 53 209 6.1 8.7 0.00 0.00 0.00 52 816.7
20260504203813 52 242 4.3 6.1 0.00 0.00 0.00 53 817.1
20260504203309 51 236 3.5 5.2 0.00 0.00 0.00 55 817.1
20260504202804 51 179 3.5 4.3 0.00 0.00 0.00 55 816.7
20260504202304 51 239 8.7 13.0 0.00 0.00 0.00 55 817.1
20260504201758 51 248 4.3 7.0 0.00 0.00 0.00 59 817.1
20260504201256 49 221 3.5 4.3 0.00 0.00 0.00 62 816.7
20260504200753 50 256 5.2 7.0 0.00 0.00 0.00 56 817.1
20260504200249 50 271 4.3 7.0 0.00 0.00 0.00 54 817.1
20260504195746 51 215 1.7 2.6 0.00 0.00 0.00 53 817.1
20260504195241 52 251 3.5 5.2 0.00 0.00 0.00 49 817.5
20260504194739 51 263 6.1 7.8 0.00 0.00 0.00 49 817.1
20260504194235 52 202 2.6 4.3 0.00 0.00 0.00 49 817.1
20260504193731 52 229 5.2 7.0 0.00 0.00 0.00 49 817.1
20260504193229 54 259 4.3 5.2 0.00 0.00 0.00 47 817.1
20260504192727 54 246 5.2 7.0 0.00 0.00 0.00 46 817.1
20260504192225 57 213 7.8 8.7 0.00 0.00 0.00 45 817.1
20260504191724 53 211 2.6 2.6 0.00 0.00 0.00 44 817.1
20260504191220 52 330 7.8 9.6 0.00 0.00 0.00 46 817.1
20260504190715 54 213 5.2 6.1 0.00 0.00 0.00 44 817.5
20260504190212 55 186 2.6 4.3 0.00 0.00 0.00 41 817.1
20260504185709 56 202 2.6 2.6 0.00 0.00 0.00 39 817.1
20260504185205 58 216 0.9 1.7 0.00 0.00 0.00 32 817.1
20260504184701 63 152 2.6 4.3 0.00 0.00 0.00 28 816.7
20260504184156 62 207 2.6 2.6 0.00 0.00 0.00 28 817.1
20260504183653 64 211 1.7 1.7 0.00 0.00 0.00 27 817.1
20260504183151 60 211 1.7 1.7 0.00 0.00 0.00 30 817.1
20260504182648 60 95 2.6 2.6 0.00 0.00 0.00 30 817.1
20260504182146 57 95 2.6 4.3 0.00 0.00 0.00 34 817.5
20260504181643 55 331 3.5 5.2 0.00 0.00 0.00 36 817.5
20260504181141 57 23 5.2 7.0 0.00 0.00 0.00 35 817.1
20260504180640 57 210 0.9 0.9 0.00 0.00 0.00 35 817.5
20260504180138 57 144 2.6 2.6 0.00 0.00 0.00 36 817.5
20260504175635 57 84 4.3 7.8 0.00 0.00 0.00 35 817.9
20260504175131 59 240 3.5 5.2 0.00 0.00 0.00 36 817.5
20260504174630 58 126 2.6 4.3 0.00 0.00 0.00 33 817.5
20260504174125 58 125 3.5 5.2 0.00 0.00 0.00 34 817.5
20260504173623 57 174 4.3 6.1 0.00 0.00 0.00 35 817.5
20260504173121 60 196 2.6 2.6 0.00 0.00 0.00 32 817.9
20260504172616 61 185 2.6 4.3 0.00 0.00 0.00 32 817.5
20260504172114 60 95 2.6 2.6 0.00 0.00 0.00 31 817.9
20260504171610 61 47 7.0 13.0 0.00 0.00 0.00 32 817.5
20260504171107 60 77 4.3 5.2 0.00 0.00 0.00 33 817.9
20260504170603 60 128 3.5 4.3 0.00 0.00 0.00 34 817.9
20260504150946 51 168 0.9 1.7 0.00 0.00 0.00 44 819.0
20260504150443 50 136 3.5 7.0 0.00 0.00 0.00 44 819.0
20260504140910 48 130 0.9 1.7 0.00 0.00 0.00 42 819.0
20260504140406 47 175 1.7 2.6 0.00 0.00 0.00 43 819.0
20260504130331 43 188 0.9 0.9 0.00 0.00 0.00 51 819.0
20260504120254 38 201 0.0 0.0 0.00 0.00 0.00 59 818.5
20260504110218 36 201 0.9 0.9 0.00 0.00 0.00 61 819.0
20260504100142 37 203 0.0 0.0 0.00 0.00 0.00 60 819.0
20260504090104 40 201 0.9 1.7 0.00 0.00 0.00 54 819.3
20260504081535 39 203 0.9 0.9 0.00 0.00 0.00 55 819.3
20260504081030 39 197 0.9 0.9 0.00 0.00 0.00 57 819.7
20260504080527 40 198 0.9 0.9 0.00 0.00 0.00 56 819.3